Powrót do katalogu

STARLINK-3639

AktywnyŁącznośćVLEO
NORAD 51789·PAYLOAD·🇺🇸 United States

Wystrzelony Feb 25, 2022 z Vandenberg Space Force Base

Loading…

Następne Przeloty (najbliższe 24 godziny)

TLE

ŚwieżeSource: CelesTrak SupGP

Epoka: Sep 15, 2026, 02:15 UTC

1 51789C 22017X   26258.09423611 -.00042441  00000+0 -12541-2 0  2580
2 51789  53.1568 205.3247 0001326  89.7406 339.1771 15.34407660    17

Śledź STARLINK-3639 w czasie rzeczywistym z AllMySat

Download on the App Store